Weather History for Gwinner, ND

Change the Weather History Date:

Saturday, January 5, 2013

  Actual Average (KP67) Record (KP67)
Temperature  
Mean Temperature 13 °F -  
Max Temperature 21 °F 14 °F 25 °F (1998)
Min Temperature 5 °F -1 °F 0 °F (1997)
Degree Days  
Heating Degree Days 52    
Moisture  
Dew Point 8 °F    
Average Humidity 81    
Maximum Humidity 93    
Minimum Humidity 73    
Precipitation  
Precipitation 0.00 in - - ()
Sea Level Pressure  
Sea Level Pressure 30.00 in    
Wind  
Wind Speed 11 mph (West)    
Max Wind Speed 20 mph    
Max Gust Speed 24 mph    
Visibility 10 miles    
Events      
Averages and records for this station are not official NWS values.
T = Trace of Precipitation, MM = Missing Value Source: NWS Daily Summary

Daily Weather History Graph

Daily Weather History Graph

Search for Another Location

Airport:

Trip Planner

Search our weather history database for the weather conditions in past years. The results will help you decide how hot, cold, wet, or windy it might be!

Date:

Astronomy

Jan. 05, 2013 Rise Set
Actual Time 8:13 AM CST 4:59 PM CST
Civil Twilight 7:38 AM CST 5:33 PM CST
Nautical Twilight 7:00 AM CST 6:11 PM CST
Astronomical Twilight 6:24 AM CST 6:48 PM CST
Moon 1:09 AM CST (1/5) 12:00 PM CST (1/5)
Length of Visible Light 9h 55m
Length of Day
8h 46m
Last Quarter, 44% of the Moon is Illuminated
Jan 5
Last Quarter
Jan 11
New
Jan 18
First Quarter
Jan 26
Full
Feb 3
Last Quarter

Hourly Weather History & Observations

Time (CST) Temp. Windchill Dew Point Humidity Pressure Visibility Wind Dir Wind Speed Gust Speed Precip Events Conditions
12:15 AM 8.6 °F -4.7 °F 3.2 °F 79% 29.98 in 10.0 mi SSW 9.2 mph - 0.00 in   Clear
12:35 AM 8.6 °F -4.7 °F 3.2 °F 79% 29.98 in 10.0 mi SW 9.2 mph - 0.00 in   Clear
12:55 AM 8.6 °F -3.7 °F 3.2 °F 79% 29.98 in 10.0 mi SW 8.1 mph - 0.00 in   Clear
1:15 AM 8.6 °F -1.3 °F 3.2 °F 79% 29.97 in 10.0 mi SW 5.8 mph - 0.00 in   Clear
1:35 AM 5.0 °F -5.6 °F 1.4 °F 85% 29.97 in 10.0 mi SW 5.8 mph - 0.00 in   Clear
1:55 AM 5.0 °F -2.1 °F 1.4 °F 85% 29.97 in 10.0 mi SSW 3.5 mph - 0.00 in   Clear
2:15 AM 5.0 °F -2.1 °F 3.2 °F 92% 29.96 in 10.0 mi SSW 3.5 mph - 0.00 in   Clear
2:35 AM 8.6 °F -1.3 °F 3.2 °F 79% 29.96 in 10.0 mi SW 5.8 mph - 0.00 in   Clear
2:55 AM 5.0 °F -8.1 °F 1.4 °F 85% 29.96 in 10.0 mi SW 8.1 mph - 0.00 in   Clear
3:15 AM 5.0 °F -8.1 °F 1.4 °F 85% 29.95 in 10.0 mi SW 8.1 mph - 0.00 in   Clear
3:35 AM 6.8 °F -7.8 °F 3.2 °F 85% 29.95 in 10.0 mi SW 10.4 mph - 0.00 in   Clear
3:55 AM 8.6 °F -6.3 °F 3.2 °F 79% 29.95 in 10.0 mi SW 11.5 mph - 0.00 in   Clear
4:15 AM 6.8 °F -10.0 °F 3.2 °F 85% 29.94 in 10.0 mi SW 13.8 mph - 0.00 in   Clear
4:35 AM 8.6 °F -7.7 °F 3.2 °F 79% 29.93 in 10.0 mi SW 13.8 mph - 0.00 in   Clear
4:55 AM 8.6 °F -7.0 °F 3.2 °F 79% 29.92 in 10.0 mi SW 12.7 mph - 0.00 in   Clear
5:15 AM 6.8 °F -9.3 °F 1.4 °F 79% 29.91 in 10.0 mi WSW 12.7 mph - 0.00 in   Clear
5:35 AM 6.8 °F -8.6 °F 1.4 °F 79% 29.91 in 10.0 mi SW 11.5 mph - 0.00 in   Clear
5:55 AM 5.0 °F -8.1 °F 1.4 °F 85% 29.91 in 10.0 mi SW 8.1 mph - 0.00 in   Clear
6:15 AM 6.8 °F -6.9 °F 1.4 °F 79% 29.90 in 10.0 mi SW 9.2 mph - 0.00 in   Clear
6:35 AM 5.0 °F -8.1 °F 1.4 °F 85% 29.91 in 10.0 mi WSW 8.1 mph - 0.00 in   Clear
7:15 AM 5.0 °F -6.9 °F 1.4 °F 85% 29.90 in 10.0 mi SW 6.9 mph - 0.00 in   Clear
7:35 AM 5.0 °F -6.9 °F -0.4 °F 78% 29.90 in 10.0 mi SW 6.9 mph - 0.00 in   Clear
7:55 AM 5.0 °F -9.1 °F -0.4 °F 78% 29.90 in 10.0 mi WSW 9.2 mph - 0.00 in   Clear
8:15 AM 5.0 °F -6.9 °F -0.4 °F 78% 29.91 in 10.0 mi SW 6.9 mph - 0.00 in   Clear
8:35 AM 5.0 °F -10.0 °F -0.4 °F 78% 29.91 in 10.0 mi WSW 10.4 mph - 0.00 in   Clear
8:55 AM 5.0 °F -10.0 °F -0.4 °F 78% 29.92 in 10.0 mi WSW 10.4 mph - 0.00 in   Clear
9:15 AM 6.8 °F -7.8 °F 1.4 °F 79% 29.92 in 10.0 mi West 10.4 mph - 0.00 in   Clear
9:55 AM 10.4 °F 0.8 °F 5.0 °F 79% 29.93 in 10.0 mi West 5.8 mph - 0.00 in   Clear
10:15 AM 17.6 °F 2.7 °F 10.4 °F 73% 29.94 in 10.0 mi NW 16.1 mph 19.6 mph 0.00 in   Clear
11:15 AM 17.6 °F 1.3 °F 10.4 °F 73% 29.95 in 10.0 mi NW 19.6 mph 23.0 mph 0.00 in   Clear
11:35 AM 17.6 °F 2.7 °F 10.4 °F 73% 29.95 in 10.0 mi NW 16.1 mph - 0.00 in   Clear
11:55 AM 15.8 °F 1.4 °F 10.4 °F 79% 29.95 in 9.0 mi NNW 13.8 mph - 0.00 in   Mostly Cloudy
12:15 PM 14.0 °F -3.0 °F 10.4 °F 86% 29.96 in 4.0 mi North 18.4 mph - 0.00 in   Overcast
12:35 PM 12.2 °F -4.8 °F 8.6 °F 85% 29.97 in 6.0 mi NNW 17.3 mph 24.2 mph 0.00 in   Overcast
12:55 PM 14.0 °F -3.4 °F 10.4 °F 86% 29.98 in 2.5 mi NNW 19.6 mph 24.2 mph 0.00 in   Overcast
1:15 PM 14.0 °F -2.0 °F 10.4 °F 86% 29.97 in 3.0 mi NNW 16.1 mph 20.7 mph 0.00 in   Overcast
1:35 PM 14.0 °F -2.5 °F 10.4 °F 86% 29.97 in 5.0 mi NNW 17.3 mph - 0.00 in   Overcast
1:55 PM 15.8 °F 0.9 °F 12.2 °F 86% 29.96 in 8.0 mi North 15.0 mph - 0.00 in   Overcast
2:15 PM 17.6 °F 2.2 °F 12.2 °F 79% 29.98 in 9.0 mi NNW 17.3 mph 21.9 mph 0.00 in   Overcast
2:35 PM 17.6 °F 2.7 °F 14.0 °F 86% 29.99 in 10.0 mi NNW 16.1 mph - 0.00 in   Overcast
2:55 PM 19.4 °F 5.0 °F 14.0 °F 80% 30.00 in 10.0 mi NNW 16.1 mph - 0.00 in   Overcast
3:15 PM 19.4 °F 4.5 °F 15.8 °F 86% 30.01 in 10.0 mi NNW 17.3 mph - 0.00 in   Overcast
3:35 PM 21.2 °F 7.3 °F 14.0 °F 74% 30.02 in 10.0 mi NNW 16.1 mph - 0.00 in   Overcast
3:55 PM 21.2 °F 6.8 °F 14.0 °F 74% 30.03 in 10.0 mi NNW 17.3 mph - 0.00 in   Overcast
4:15 PM 19.4 °F 5.0 °F 12.2 °F 74% 30.04 in 10.0 mi NNW 16.1 mph - 0.00 in   Mostly Cloudy
4:55 PM 17.6 °F 3.2 °F 12.2 °F 79% 30.07 in 10.0 mi NNW 15.0 mph - 0.00 in   Clear
5:15 PM 17.6 °F 2.2 °F 12.2 °F 79% 30.08 in 10.0 mi NW 17.3 mph - 0.00 in   Clear
5:35 PM 17.6 °F 3.2 °F 12.2 °F 79% 30.08 in 10.0 mi NW 15.0 mph - 0.00 in   Partly Cloudy
5:55 PM 17.6 °F 3.2 °F 12.2 °F 79% 30.08 in 10.0 mi NW 15.0 mph - 0.00 in   Partly Cloudy
6:15 PM 17.6 °F 3.7 °F 10.4 °F 73% 30.09 in 10.0 mi NW 13.8 mph - 0.00 in   Clear
6:35 PM 15.8 °F 0.9 °F 10.4 °F 79% 30.09 in 10.0 mi NW 15.0 mph - 0.00 in   Clear
6:55 PM 15.8 °F -0.6 °F 10.4 °F 79% 30.11 in 10.0 mi WNW 18.4 mph - 0.00 in   Clear
7:15 PM 15.8 °F -1.1 °F 10.4 °F 79% 30.11 in 10.0 mi NW 19.6 mph - 0.00 in   Clear
7:55 PM 15.8 °F 0.9 °F 10.4 °F 79% 30.14 in 10.0 mi NW 15.0 mph - 0.00 in   Clear
8:15 PM 17.6 °F 3.2 °F 12.2 °F 79% 30.14 in 10.0 mi NW 15.0 mph - 0.00 in   Scattered Clouds
8:35 PM 17.6 °F 5.0 °F 12.2 °F 79% 30.14 in 10.0 mi NW 11.5 mph - 0.00 in   Overcast
8:55 PM 17.6 °F 5.7 °F 14.0 °F 86% 30.13 in 10.0 mi WNW 10.4 mph - 0.00 in   Overcast
9:15 PM 17.6 °F 7.3 °F 14.0 °F 86% 30.13 in 10.0 mi WNW 8.1 mph - 0.00 in   Overcast
9:35 PM 17.6 °F 5.0 °F 14.0 °F 86% 30.12 in 10.0 mi WNW 11.5 mph - 0.00 in   Overcast
9:55 PM 17.6 °F 10.7 °F 14.0 °F 86% 30.12 in 10.0 mi West 4.6 mph - 0.00 in   Overcast
10:15 PM 17.6 °F 9.3 °F 14.0 °F 86% 30.12 in 10.0 mi West 5.8 mph - 0.00 in   Overcast
10:35 PM 19.4 °F 10.4 °F 15.8 °F 86% 30.11 in 10.0 mi SW 6.9 mph - 0.00 in   Overcast
10:55 PM 17.6 °F 7.3 °F 14.0 °F 86% 30.11 in 10.0 mi WSW 8.1 mph - 0.00 in   Scattered Clouds
11:15 PM 14.0 °F 2.0 °F 12.2 °F 93% 30.12 in 10.0 mi WSW 9.2 mph - 0.00 in   Clear
11:35 PM 14.0 °F 1.2 °F 10.4 °F 86% 30.12 in 10.0 mi West 10.4 mph - 0.00 in   Clear
11:55 PM 14.0 °F 3.9 °F 10.4 °F 86% 30.12 in 10.0 mi WSW 6.9 mph - 0.00 in   Partly Cloudy